Location: Sternwarte_Laufen
(47.9344°N, 12.9346°E)
Time: 04:54:36
(UTC+02:00)

ISS - Visible Passes

Search period start: 25 July 2024 00:00
Search period end: 04 August 2024 00:00
Orbit: 409 x 423 km, 51.6° (Epoch: 24 July)

Date Brightness Start Highest point End Pass type
(mag) Time Alt. Az. Time Alt. Az. Time Alt. Az.
25 Jul -2.5 22:14:32 10° W 22:17:27 28° SW 22:19:15 17° SSE visible
26 Jul -3.1 21:25:44 10° WNW 21:28:55 43° SSW 21:32:05 10° SE visible
27 Jul -1.3 22:14:57 10° WSW 22:16:30 13° SW 22:18:02 10° SSW visible
28 Jul -1.8 21:25:28 10° W 21:27:58 20° SW 21:30:28 10° S visible
